Flag Weather past 2 weeks in Izmir, Turkey

Now
43 °F

Partly cloudy.


Feels Like: 43 °F
Forecast: 44 / 66 °F
Wind: 2 mph from North

Location: Izmir / Adnan Menderes

Current Time: Nov 28, 2014 at 2:56:06 AM

Latest Report: Nov 28, 2014 at 2:20 AM


Visibility: N/A

Pressure: 30.15 "Hg

Humidity: 81%

Dew point: 37 °F

Location of IzmirLocation

Historic Weather in Izmir — Graph

°F

Izmir temperature yesterday

Maximum temperature yesterday: 55 °F (at 1:50 PM)
Minimum temperature yesterday: 34 °F (at 6:20 AM)
Average temperature yesterday: 46 °F

Past Weeks' High & Low Weather Summary

 TemperatureHumidityPressure
High72 °F (Nov 18, 1:50 PM)100% (Nov 13, 1:20 AM)30.18 "Hg (Nov 13, 1:20 AM)
Low34 °F (Nov 27, 6:20 AM)44% (Nov 24, 12:50 PM)29.80 "Hg (Nov 14, 6:50 AM)
Average54 °F74%30.03 "Hg
* Reported Nov 13 1:20 AM — Nov 28 1:50 AM, Izmir, Weather by CustomWeather, © 2014

Note: Actual official high and low records may vary slightly from our data, if they occured in-between our weather recording intervals... More about our weather records

Advertising

Izmir weather history for previous 24 hours

 ConditionsComfort  
Time TempWeatherWind HumidityBarometerVisibility
1:50 AM
Nov 28
43 °FPartly cloudy.2 mph81%30.15 "HgN/A
1:20 AM43 °FPartly cloudy.2 mph81%30.15 "HgN/A
12:50 AM43 °FPartly cloudy.2 mph76%30.15 "HgN/A
12:20 AM43 °FClear.2 mph76%30.15 "Hg10 mi
11:50 PM
Nov 27
41 °FClear.No wind81%30.15 "Hg10 mi
11:20 PM41 °FClear.2 mph81%30.15 "Hg10 mi
10:50 PM41 °FClear.3 mph81%30.15 "Hg10 mi
10:20 PM43 °FClear.2 mph81%30.15 "Hg10 mi
9:50 PM43 °FClear.2 mph76%30.15 "Hg10 mi
9:20 PM48 °FPassing clouds.3 mph66%30.15 "HgN/A
8:50 PM45 °FPassing clouds.3 mph76%30.15 "HgN/A
8:20 PM48 °FClear.5 mph66%30.12 "Hg10 mi
7:50 PM48 °FClear.8 mph66%30.12 "Hg10 mi
7:20 PM50 °FClear.6 mph62%30.12 "Hg10 mi
6:50 PM48 °FPassing clouds.8 mph66%30.12 "HgN/A
6:20 PM48 °FClear.12 mph66%30.12 "Hg10 mi
5:50 PM50 °FClear.10 mph62%30.12 "Hg10 mi
5:20 PM48 °FPartly cloudy.10 mph62%30.12 "HgN/A
4:50 PM50 °FSunny.12 mph58%30.12 "Hg10 mi
4:20 PM52 °FSunny.16 mph54%30.09 "Hg10 mi
3:50 PM54 °FScattered clouds.15 mph47%30.09 "HgN/A
3:20 PM54 °FScattered clouds.14 mph51%30.09 "HgN/A
2:50 PM54 °FScattered clouds.13 mph51%30.09 "HgN/A
2:20 PM55 °FScattered clouds.12 mph47%30.09 "HgN/A
1:50 PM55 °FScattered clouds.12 mph47%30.09 "HgN/A
1:20 PM54 °FScattered clouds.14 mph51%30.09 "HgN/A
12:50 PM54 °FScattered clouds.10 mph51%30.09 "HgN/A
12:20 PM54 °FScattered clouds.10 mph51%30.12 "HgN/A
11:50 AM52 °FScattered clouds.12 mph58%30.12 "HgN/A
11:20 AM50 °FScattered clouds.10 mph58%30.12 "HgN/A
10:50 AM50 °FSunny.14 mph58%30.12 "Hg10 mi
10:20 AM48 °FSunny.13 mph62%30.15 "Hg10 mi
9:50 AM46 °FPassing clouds.12 mph66%30.12 "HgN/A
9:20 AM46 °FSunny.9 mph66%30.12 "Hg10 mi
8:50 AM45 °FSunny.10 mph71%30.12 "Hg10 mi
8:20 AM41 °FSunny.9 mph81%30.12 "Hg10 mi
7:50 AM41 °FSunny.9 mph76%30.12 "Hg10 mi
7:20 AM37 °FPassing clouds.6 mph93%30.12 "HgN/A
6:50 AM34 °FClear.No wind87%30.12 "Hg10 mi
6:20 AM34 °FClear.2 mph87%30.09 "Hg10 mi
5:50 AM39 °FClear.6 mph81%30.09 "Hg10 mi
5:20 AM36 °FClear.3 mph75%30.09 "Hg10 mi
4:50 AM41 °FClear.9 mph76%30.09 "Hg10 mi
4:20 AM39 °FClear.9 mph81%30.09 "Hg10 mi
3:50 AM41 °FClear.10 mph76%30.09 "Hg10 mi
3:20 AM41 °FClear.8 mph76%30.09 "Hg10 mi
2:50 AM41 °FClear.9 mph81%30.09 "Hg10 mi
2:20 AM41 °FClear.10 mph76%30.09 "Hg10 mi
Weather by CustomWeather, © 2014

See weather overviewHow to use our weather pages